Powrót do katalogu

SL-14 DEB

AktywnyPO
NORAD 17272·DEBRIS·🇷🇺 Russia

Wystrzelony Dec 18, 1986 z Plesetsk Cosmodrome

Loading…

Następne Przeloty (najbliższe 24 godziny)

TLE

ŚwieżeSource: Space-Track

Epoka: Sep 14, 2026, 13:12 UTC

1 17272U 86101G   26257.55002907  .00000556  00000-0  30143-3 0  9995
2 17272  82.4887 197.1265 0019064 352.8209   7.2690 14.10841154 30374

Śledź SL-14 DEB w czasie rzeczywistym z AllMySat

Download on the App Store